Location: Coopersdale
(40.3556°N, 78.9372°W)
Time: 20:03:20
(UTC+00:00)

Transit 4A - Pass Details

Date: 30 January 2021
Orbit: 866 x 978 km, 66.8° (Epoch: 26 February)

Event Time Altitude Azimuth Distance (km) Brightness Sun altitude
Rises 06:50:41 0° 337° (NNW) 3,622 - -61.2°
Reaches altitude 10° 06:53:34 10° 347° (NNW) 2,656 - -60.8°
Maximum altitude 06:59:01 32° 49° (NE) 1,535 - -60.1°
Drops below altitude 10° 07:04:18 10° 111° (ESE) 2,574 - -59.3°
Sets 07:07:03 0° 122° (ESE) 3,494 - -58.9°
